Muncie, IN

5:03 AM EDT on March 24, 2017 (GMT -0400)
Delaware County-Johnson

Weather History for KMIE - September, 2013

Change the Weather History Date:

Saturday, September 28, 2013

  Actual Average Record
Temperature  
Mean Temperature 65 °F 60 °F  
Max Temperature 81 °F 72 °F 87 °F (1999)
Min Temperature 48 °F 49 °F 35 °F (1989)
Degree Days  
Heating Degree Days 0 6  
Month to date heating degree days 79 78  
Since 1 July heating degree days 105 88  
Cooling Degree Days 0 2  
Month to date cooling degree days 123 103  
Year to date cooling degree days 938 937  
Growing Degree Days 14 (Base 50)    
Moisture  
Dew Point 51 °F    
Average Humidity 64    
Maximum Humidity 93    
Minimum Humidity 35    
Precipitation  
Precipitation 0.00 in 0.09 in 0.51 in (1972)
Month to date precipitation 2.89 2.78  
Year to date precipitation 27.77 30.69  
Sea Level Pressure  
Sea Level Pressure 30.09 in    
Wind  
Wind Speed 5 mph (South)    
Max Wind Speed 16 mph    
Max Gust Speed 23 mph    
Visibility 10 miles    
Events      
T = Trace of Precipitation, MM = Missing Value Source: NWS Daily Summary

Daily Weather History Graph

Daily Weather History Graph

Search for Another Location

Airport or City:

Trip Planner

Search our weather history database for the weather conditions in past years. The results will help you decide how hot, cold, wet, or windy it might be!

Date:

Astronomy

Sep. 28, 2013 Rise Set
Actual Time 7:35 AM EDT 7:28 PM EDT
Civil Twilight 7:08 AM EDT 7:55 PM EDT
Nautical Twilight 6:36 AM EDT 8:26 PM EDT
Astronomical Twilight 6:04 AM EDT 8:58 PM EDT
Moon 1:21 AM EDT (9/28) 3:47 PM EDT (9/28)
Length of Visible Light 12h 47m
Length of Day
11h 53m
Last Quarter, 36% of the Moon is Illuminated
Sep 28
Last Quarter
Oct 4
New
Oct 11
First Quarter
Oct 18
Full
Oct 26
Last Quarter

Hourly Weather History & Observations

Time (EDT) Temp. Dew Point Humidity Pressure Visibility Wind Dir Wind Speed Gust Speed Precip Events Conditions
12:53 AM 54.0 °F 48.0 °F 80% 30.13 in 10.0 mi Calm Calm - N/A   Clear
1:53 AM 54.0 °F 48.9 °F 83% 30.12 in 10.0 mi ESE 6.9 mph - N/A   Clear
2:53 AM 52.0 °F 48.0 °F 86% 30.12 in 10.0 mi SE 4.6 mph - N/A   Clear
3:53 AM 48.9 °F 46.0 °F 90% 30.12 in 10.0 mi Calm Calm - N/A   Clear
4:53 AM 50.0 °F 46.9 °F 89% 30.12 in 10.0 mi Calm Calm - N/A   Clear
5:53 AM 51.1 °F 46.9 °F 86% 30.12 in 10.0 mi Calm Calm - N/A   Clear
6:53 AM 48.9 °F 46.9 °F 93% 30.14 in 10.0 mi Calm Calm - N/A   Clear
7:53 AM 50.0 °F 46.9 °F 89% 30.15 in 10.0 mi SE 3.5 mph - N/A   Clear
8:53 AM 59.0 °F 50.0 °F 72% 30.16 in 10.0 mi South 3.5 mph - N/A   Clear
9:53 AM 64.9 °F 51.1 °F 61% 30.17 in 10.0 mi South 6.9 mph - N/A   Clear
10:53 AM 71.1 °F 53.1 °F 53% 30.17 in 10.0 mi SSW 5.8 mph - N/A   Clear
11:53 AM 75.0 °F 53.1 °F 46% 30.15 in 10.0 mi South 8.1 mph - N/A   Clear
12:53 PM 77.0 °F 52.0 °F 42% 30.13 in 10.0 mi West 11.5 mph - N/A   Clear
1:53 PM 79.0 °F 51.1 °F 38% 30.09 in 10.0 mi South 8.1 mph - N/A   Clear
2:53 PM 80.1 °F 52.0 °F 38% 30.07 in 10.0 mi SSW 9.2 mph - N/A   Clear
3:53 PM 79.0 °F 50.0 °F 36% 30.06 in 10.0 mi SSW 9.2 mph - N/A   Clear
4:53 PM 80.1 °F 50.0 °F 35% 30.03 in 10.0 mi SSW 8.1 mph - N/A   Clear
5:53 PM 80.1 °F 51.1 °F 36% 30.03 in 10.0 mi SSW 9.2 mph 16.1 mph N/A   Clear
6:53 PM 78.1 °F 52.0 °F 40% 30.04 in 10.0 mi Variable 5.8 mph - N/A   Clear
7:53 PM 73.9 °F 52.0 °F 46% 30.03 in 10.0 mi Calm Calm - N/A   Scattered Clouds
8:53 PM 72.0 °F 54.0 °F 53% 30.03 in 10.0 mi South 4.6 mph - N/A   Mostly Cloudy
9:53 PM 70.0 °F 54.0 °F 57% 30.02 in 10.0 mi South 5.8 mph - N/A   Mostly Cloudy
10:53 PM 68.0 °F 55.0 °F 63% 30.02 in 10.0 mi South 5.8 mph - N/A   Partly Cloudy
11:53 PM 66.9 °F 55.9 °F 68% 30.02 in 10.0 mi South 5.8 mph - N/A   Scattered Clouds